Regional Weather Roundup
Issued by NWS

Home | Current Version | Previous Version | Text Only | Print | Product List | Glossary Off
Versions: 1 2 3 4 5 6 7 8 9 10 11 12 13 14 15 16 17 18 19 20 21 22 23 24 25 26 27 28 29 30 31 32 33 34 35 36 37 38 39 40 41 42 43 44 45 46 47 48 49 50

000
ASUS43 KMPX 092110
RWRMN
WEATHER ROUNDUP FOR MINNESOTA
NATIONAL WEATHER SERVICE TWIN CITIES/CHANHASSEN MN
400 PM CDT WED JUL 09 2014


NOTE: "FAIR" INDICATES FEW OR NO CLOUDS BELOW 12,000 FEET WITH NO
SIGNIFICANT WEATHER AND/OR OBSTRUCTIONS TO VISIBILITY. N/A MEANS
CURRENT SKY AND/OR WEATHER CONDITIONS ARE NOT AVAILABLE.

MNZ060>063-068>070-092200-
   Twin Cities Metro

CITY           SKY/WX    TMP DP  RH WIND       PRES   REMARKS
TWIN CITIES    MOSUNNY   79  53  40 W7        29.98F
ST PAUL        MOSUNNY   76  52  43 N6        29.98F
CRYSTAL        MOSUNNY   79  52  38 W8        29.97F
BLAINE         PTSUNNY   79  54  41 NW7       29.98F
LAKEVILLE      SUNNY     75  54  46 NW7       29.99S
EDEN PRAIRIE   SUNNY     79  52  38 N7        29.98S
SOUTH ST PAUL  SUNNY     76  51  41 NW8       29.98F
LAKE ELMO      PTSUNNY   75  55  50 N7        30.00S
$$
MNZ001>005-007-008-013>017-022>024-027-028-092200-
   Northwest Minnesota

CITY           SKY/WX    TMP DP  RH WIND       PRES   REMARKS
BEMIDJI        PTSUNNY   69  51  51 N5        30.00S
HALLOCK        SUNNY     70  48  46 CALM      30.01S
ROSEAU         SUNNY     70  54  56 CALM      30.00S
WARROAD        MOSUNNY   70  55  60 E6        30.00S
THIEF RVR FALL PTSUNNY   72  48  43 W7        30.01S
CROOKSTON      SUNNY     72  52  49 W7        30.01F
FOSSTON        SUNNY     72  52  49 NW5       30.02S
DETROIT LAKES  SUNNY     70  52  52 N6        30.03S
MOORHEAD       SUNNY     73  46  38 N9        30.01F
PARK RAPIDS    MOSUNNY   73  49  42 NE7       30.00S
$$
MNZ006-009>011-018-025>026-092200-
   North Central Minnesota

CITY           SKY/WX    TMP DP  RH WIND       PRES   REMARKS
BAUDETTE       SUNNY     71  49  45 N7        30.01S
FLAG ISLAND    PTSUNNY   66  54  63 S7        29.99S
INTL FALLS     PTSUNNY   70  48  45 VRB3      29.99S
WASKISH        MOSUNNY   72  54  53 SW7       30.00S
LONGVILLE      SUNNY     73  52  46 W7        30.00S
GRAND RAPIDS   MOSUNNY   72  48  43 NW7       30.00S
CRANE LAKE     MOSUNNY   68  46  45 N6        30.01S
ORR            MOSUNNY   70  46  43 NW5       29.97S
COOK           MOSUNNY   66  46  48 NW6       30.00S
$$
MNZ012-019>021-037-092200-
   Northeast Minnesota

CITY           SKY/WX    TMP DP  RH WIND       PRES   REMARKS
DULUTH         MOSUNNY   70  47  43 N8        29.99R
ELY            MOSUNNY   68  43  40 NW7       29.99R
HIBBING        PTSUNNY   73  48  41 NW9       29.99S
EVELETH        CLOUDY    72  48  43 N6        30.01R
DULUTH HARBOR  MOSUNNY   73  54  49 E3        29.98S
TWO HARBORS    PTSUNNY   68  48  49 CALM      29.97R
SILVER BAY     SUNNY     66  54  63 SE8       29.97R
GRAND MARAIS     N/A     52  44  74 W5        29.98R
G MARAIS ARPRT MOSUNNY   66  45  45 NW3       29.99S
$$
MNZ029>031-032-039>041-046>048-054>057-064-092200-
   West Central Minnesota

CITY           SKY/WX    TMP DP  RH WIND       PRES   REMARKS
FERGUS FALLS   SUNNY     73  48  40 NW10      30.01S
WHEATON        SUNNY     73  54  49 NW9       30.02F
MORRIS         SUNNY     75  55  50 N5        30.00S
ALEXANDRIA     SUNNY     75  46  35 NW8       30.03S
WADENA         SUNNY     72  54  53 NW5       30.00S
GLENWOOD       SUNNY     75  52  43 NW7       30.02S
APPLETON       MOSUNNY   81  50  34 N6        30.00S
BENSON         PTSUNNY   75  52  43 N9        30.01S
ORTONVILLE     SUNNY     77  50  38 NW5       30.01S
MADISON        SUNNY     79  52  38 NW5       30.01S
WILLMAR        FAIR      77  46  33 NW9       30.02S
$$
MNZ033>034-036-042>043-049>051-058-059-092200-
   Central Minnesota

CITY           SKY/WX    TMP DP  RH WIND       PRES   REMARKS
ST CLOUD       SUNNY     78  52  40 W5        29.99S
SAUK CENTRE    MOCLDY    74  50  42 NW8       30.00S
PAYNESVILLE    PTSUNNY   73  50  43 SW3       30.00S
AITKIN         MOSUNNY   75  50  41 NW7       29.98S
PINE RIVER     MOSUNNY   72  52  49 N5        30.02F
BRAINERD       MOSUNNY   77  50  38 NE6       29.99F
STAPLES        PTSUNNY   73  52  46 CALM      30.00S
LONG PRAIRIE   FAIR      73  50  43 SW6       30.01S
LITTLE FALLS   SUNNY     75  46  35 N5        29.99S
LITCHFIELD     PTSUNNY   75  52  43 CALM      30.01R
BUFFALO        PTSUNNY   77  50  39 CALM      30.00S
MAPLE LAKE     MOSUNNY   77  56  48 NW5       30.00F
$$
MNZ037-044-045-052-053-092200-
   East Central Minnesota

CITY           SKY/WX    TMP DP  RH WIND       PRES   REMARKS
PRINCETON      MOSUNNY   79  54  41 W6        29.99S
MORA           SUNNY     73  48  40 NW9       30.00S
CAMBRIDGE      SUNNY     77  57  50 N3        29.97F
RUSH CITY      MOSUNNY   76  51  42 NW3       29.99S
MOOSE LAKE     PTSUNNY   73  50  43 NW6       29.97S
HINCKLEY       FAIR      73  55  53 W5        29.98S
CLOQUET        MOSUNNY   72  45  37 NW9       29.99S
MCGREGOR       MOSUNNY   73  50  43 N7        29.99S
$$
MNZ071>073-080-081-089-090-097-098-092200-
   Southwest Minnesota

CITY           SKY/WX    TMP DP  RH WIND       PRES   REMARKS
MONTEVIDEO     PTSUNNY   79  52  38 NE6       30.01F
GRANITE FALLS  MOSUNNY   78  51  38 NW9       30.02S
CANBY          MOSUNNY   79  53  40 W8        30.02F
MARSHALL       SUNNY     77  52  41 MISG      30.01S
REDWOOD FALLS  SUNNY     79  49  34 NW7       30.00R
OLIVIA         MOSUNNY   77  50  38 NW9       30.00S
PIPESTONE      MOSUNNY   79  55  44 CALM      30.02F
WINDOM         SUNNY     79  54  41 NW12G17   30.02S
WORTHINGTON    PTSUNNY   75  57  53 NW6       30.04S
JACKSON        MOSUNNY   77  54  44 N7        30.03S
TRACY          SUNNY     79  53  40 N8        30.02S
SLAYTON        MOSUNNY   78  52  40 CALM      30.03F
$$
MNZ065>067-074>077-082>085-091>093-092200-
   South Central Minnesota

CITY           SKY/WX    TMP DP  RH WIND       PRES   REMARKS
MANKATO        PTSUNNY   79  48  34 NW12      29.99S
NEW ULM        MOSUNNY   79  52  38 NW10G16   29.99S
ST JAMES       SUNNY     81  46  30 W9        30.01S
FAIRMONT       SUNNY     81  52  36 NW12      30.01S
GLENCOE        SUNNY     79  46  31 N5        29.98S
FARIBAULT      PTSUNNY   81  46  30 S3        30.00S
OWATONNA       MOSUNNY   77  52  41 CALM      30.00S
WASECA         MOSUNNY   77  48  36 W7        30.01S
ALBERT LEA     SUNNY     79  48  34 W7        30.00F
$$
MNZ078>079-086>088-094>096-092200-
   Southeast Minnesota

CITY           SKY/WX    TMP DP  RH WIND       PRES   REMARKS
ROCHESTER      PTSUNNY   76  57  51 NW6       30.03S
RED WING       SUNNY     79  50  36 W8        29.98S
STANTON        MOSUNNY   78  51  38 N5        29.98S
DODGE CENTER   MOSUNNY   75  54  46 W9        30.01F
WINONA         SUNNY     77  54  44 NW3       30.01S
AUSTIN         MOSUNNY   79  46  31 W5        30.01S
PRESTON        SUNNY     74  57  55 W7        30.03S
$$
ABBREVIATIONS USED IN REMARKS
   TC - TEMPERATURES IN CELSIUS
  WCI - WIND CHILL INDEX
   HX - HEAT INDEX
  VSB - VISIBILITY
$$



USA.gov is the U.S. government's official web portal to all federal, state and local government web resources and services.